Time,TemperatureF,DewpointF,PressureIn,WindDirection,WindDirectionDegrees,WindSpeedMPH,WindSpeedGustMPH,Humidity,HourlyPrecipIn,Conditions,Clouds,dailyrainin,SoftwareType,DateUTC
2013-06-01 00:00:00,63.6,63.0,29.84,South,171,3.0,13.0,97,0.05,,,0.00,weatherlink.com 1.10,2013-06-01 04:00:00,
2013-06-01 00:15:00,63.8,63.0,29.82,SE,145,5.0,10.0,97,0.04,,,0.01,weatherlink.com 1.10,2013-06-01 04:15:00,
2013-06-01 00:30:00,64.0,63.0,29.83,SSE,155,5.0,8.0,97,0.01,,,0.01,weatherlink.com 1.10,2013-06-01 04:30:00,
2013-06-01 00:45:00,64.4,64.0,29.82,SE,142,6.0,9.0,98,0.03,,,0.03,weatherlink.com 1.10,2013-06-01 04:45:00,
2013-06-01 01:01:00,64.7,64.0,29.80,SSE,165,4.0,9.0,98,0.04,,,0.04,weatherlink.com 1.10,2013-06-01 05:01:00,
2013-06-01 01:16:00,65.5,65.0,29.79,West,275,2.0,9.0,98,0.17,,,0.18,weatherlink.com 1.10,2013-06-01 05:16:00,
2013-06-01 01:31:00,66.5,66.0,29.79,SSE,149,3.0,7.0,98,0.32,,,0.33,weatherlink.com 1.10,2013-06-01 05:31:00,
2013-06-01 01:46:00,66.6,66.0,29.78,SSE,162,5.0,10.0,98,0.34,,,0.37,weatherlink.com 1.10,2013-06-01 05:46:00,
2013-06-01 02:01:00,67.0,67.0,29.78,West,265,1.0,4.0,98,0.55,,,0.59,weatherlink.com 1.10,2013-06-01 06:01:00,
2013-06-01 02:16:00,66.7,66.0,29.77,SSE,147,7.0,8.0,98,0.47,,,0.66,weatherlink.com 1.10,2013-06-01 06:16:00,
2013-06-01 02:31:00,66.3,66.0,29.78,NW,315,2.0,5.0,98,0.38,,,0.72,weatherlink.com 1.10,2013-06-01 06:31:00,
2013-06-01 02:46:00,66.7,66.0,29.81,SW,227,8.0,12.0,98,0.35,,,0.72,weatherlink.com 1.10,2013-06-01 06:46:00,
2013-06-01 03:01:00,65.8,65.0,29.81,NW,307,3.0,11.0,97,0.48,,,1.07,weatherlink.com 1.10,2013-06-01 07:01:00,
2013-06-01 03:16:00,65.5,65.0,29.80,South,184,0.0,5.0,98,0.46,,,1.13,weatherlink.com 1.10,2013-06-01 07:16:00,
2013-06-01 03:31:00,65.5,65.0,29.80,South,180,1.0,5.0,98,0.42,,,1.14,weatherlink.com 1.10,2013-06-01 07:31:00,
2013-06-01 03:46:00,65.5,65.0,29.79,South,180,0.0,2.0,98,0.45,,,1.17,weatherlink.com 1.10,2013-06-01 07:46:00,
2013-06-01 04:01:00,65.6,65.0,29.79,SSE,161,3.0,7.0,98,0.11,,,1.19,weatherlink.com 1.10,2013-06-01 08:01:00,
2013-06-01 04:16:00,65.4,65.0,29.79,SSE,167,9.0,12.0,98,0.08,,,1.21,weatherlink.com 1.10,2013-06-01 08:16:00,
2013-06-01 04:31:00,64.8,64.0,29.79,South,190,0.0,9.0,98,0.07,,,1.22,weatherlink.com 1.10,2013-06-01 08:31:00,
2013-06-01 04:46:00,64.4,64.0,29.78,SW,217,0.0,9.0,98,0.05,,,1.22,weatherlink.com 1.10,2013-06-01 08:46:00,
2013-06-01 05:01:00,64.3,64.0,29.79,South,184,0.0,7.0,98,0.04,,,1.23,weatherlink.com 1.10,2013-06-01 09:01:00,
2013-06-01 05:16:00,64.1,64.0,29.81,SSE,165,2.0,8.0,98,0.02,,,1.23,weatherlink.com 1.10,2013-06-01 09:16:00,
2013-06-01 05:31:00,64.1,64.0,29.78,SSE,163,6.0,7.0,98,0.02,,,1.24,weatherlink.com 1.10,2013-06-01 09:31:00,
2013-06-01 05:46:00,64.0,64.0,29.79,ESE,123,4.0,7.0,98,0.03,,,1.26,weatherlink.com 1.10,2013-06-01 09:46:00,
2013-06-01 06:01:00,64.0,64.0,29.78,SSE,157,1.0,6.0,98,0.04,,,1.27,weatherlink.com 1.10,2013-06-01 10:01:00,
2013-06-01 06:16:00,63.9,63.0,29.78,SSE,158,4.0,7.0,98,0.04,,,1.27,weatherlink.com 1.10,2013-06-01 10:16:00,
2013-06-01 06:31:00,63.9,63.0,29.80,SE,142,3.0,8.0,98,0.04,,,1.28,weatherlink.com 1.10,2013-06-01 10:31:00,
2013-06-01 06:46:00,63.8,63.0,29.78,SSE,159,8.0,11.0,98,0.04,,,1.30,weatherlink.com 1.10,2013-06-01 10:46:00,
2013-06-01 07:01:00,63.8,63.0,29.78,South,181,2.0,11.0,98,0.04,,,1.31,weatherlink.com 1.10,2013-06-01 11:01:00,
2013-06-01 07:16:00,63.8,63.0,29.77,SSE,165,11.0,13.0,98,0.04,,,1.31,weatherlink.com 1.10,2013-06-01 11:16:00,
2013-06-01 07:31:00,63.9,63.0,29.75,SSE,152,8.0,13.0,98,0.04,,,1.32,weatherlink.com 1.10,2013-06-01 11:31:00,
2013-06-01 07:46:00,64.0,64.0,29.74,SE,138,6.0,14.0,98,0.02,,,1.32,weatherlink.com 1.10,2013-06-01 11:46:00,
2013-06-01 08:01:00,63.9,63.0,29.73,SSE,148,10.0,13.0,98,0.01,,,1.32,weatherlink.com 1.10,2013-06-01 12:01:00,
2013-06-01 08:16:00,64.3,64.0,29.73,SSE,156,8.0,14.0,98,0.01,,,1.32,weatherlink.com 1.10,2013-06-01 12:16:00,
2013-06-01 08:31:00,64.7,64.0,29.74,SE,144,11.0,17.0,97,0.00,,,1.32,weatherlink.com 1.10,2013-06-01 12:31:00,
2013-06-01 08:46:00,64.8,64.0,29.74,SSE,149,9.0,17.0,97,0.00,,,1.32,weatherlink.com 1.10,2013-06-01 12:46:00,
2013-06-01 09:01:00,65.1,64.0,29.75,South,179,4.0,13.0,96,0.00,,,1.32,weatherlink.com 1.10,2013-06-01 13:01:00,
2013-06-01 09:16:00,65.5,64.0,29.77,SSW,210,1.0,8.0,96,0.00,,,1.32,weatherlink.com 1.10,2013-06-01 13:16:00,
2013-06-01 09:31:00,65.8,65.0,29.77,SW,236,2.0,7.0,97,0.00,,,1.32,weatherlink.com 1.10,2013-06-01 13:31:00,
2013-06-01 09:46:00,66.8,66.0,29.77,West,277,2.0,4.0,96,0.00,,,1.32,weatherlink.com 1.10,2013-06-01 13:46:00,
2013-06-01 10:01:00,67.3,66.0,29.76,SSW,207,0.0,5.0,94,0.00,,,1.32,weatherlink.com 1.10,2013-06-01 14:01:00,
2013-06-01 10:16:00,68.7,67.0,29.77,South,190,1.0,6.0,93,0.00,,,1.32,weatherlink.com 1.10,2013-06-01 14:16:00,
2013-06-01 10:31:00,69.3,67.0,29.76,South,170,0.0,7.0,91,0.00,,,1.32,weatherlink.com 1.10,2013-06-01 14:31:00,
2013-06-01 10:46:00,70.1,67.0,29.76,South,181,1.0,8.0,88,0.00,,,1.32,weatherlink.com 1.10,2013-06-01 14:46:00,
2013-06-01 11:01:00,71.0,67.0,29.76,SSW,192,3.0,7.0,87,0.00,,,1.32,weatherlink.com 1.10,2013-06-01 15:01:00,
2013-06-01 11:16:00,71.5,67.0,29.76,SSE,154,5.0,11.0,86,0.00,,,1.32,weatherlink.com 1.10,2013-06-01 15:16:00,
2013-06-01 11:31:00,71.6,67.0,29.76,SSW,198,5.0,8.0,84,0.00,,,1.32,weatherlink.com 1.10,2013-06-01 15:31:00,
2013-06-01 11:46:00,71.4,66.0,29.77,WSW,244,8.0,12.0,83,0.00,,,1.32,weatherlink.com 1.10,2013-06-01 15:46:00,
2013-06-01 12:01:00,71.2,65.0,29.78,West,279,4.0,11.0,81,0.00,,,1.32,weatherlink.com 1.10,2013-06-01 16:01:00,
2013-06-01 12:16:00,70.7,65.0,29.77,SW,222,4.0,10.0,83,0.00,,,1.32,weatherlink.com 1.10,2013-06-01 16:16:00,
2013-06-01 12:31:00,72.2,66.0,29.77,West,270,8.0,16.0,81,0.00,,,1.32,weatherlink.com 1.10,2013-06-01 16:31:00,
2013-06-01 12:47:00,72.2,66.0,29.77,NNW,335,0.0,12.0,80,0.00,,,1.32,weatherlink.com 1.10,2013-06-01 16:47:00,
2013-06-01 13:02:00,72.6,66.0,29.77,South,191,4.0,12.0,80,0.00,,,1.32,weatherlink.com 1.10,2013-06-01 17:02:00,
2013-06-01 13:17:00,72.5,66.0,29.77,SW,225,1.0,13.0,79,0.00,,,1.32,weatherlink.com 1.10,2013-06-01 17:17:00,
2013-06-01 13:32:00,71.6,64.0,29.78,West,265,0.0,9.0,78,0.00,,,1.32,weatherlink.com 1.10,2013-06-01 17:32:00,
2013-06-01 13:47:00,70.7,65.0,29.78,WSW,248,1.0,9.0,81,0.00,,,1.32,weatherlink.com 1.10,2013-06-01 17:47:00,
2013-06-01 14:02:00,70.7,65.0,29.77,West,267,2.0,9.0,81,0.00,,,1.32,weatherlink.com 1.10,2013-06-01 18:02:00,
2013-06-01 14:17:00,70.7,65.0,29.77,WSW,253,3.0,11.0,82,0.00,,,1.32,weatherlink.com 1.10,2013-06-01 18:17:00,
2013-06-01 14:32:00,70.9,65.0,29.76,SW,222,0.0,8.0,81,0.00,,,1.32,weatherlink.com 1.10,2013-06-01 18:32:00,
2013-06-01 14:47:00,71.3,65.0,29.76,South,180,1.0,9.0,81,0.00,,,1.32,weatherlink.com 1.10,2013-06-01 18:47:00,
2013-06-01 15:02:00,71.7,65.0,29.76,WNW,297,2.0,7.0,79,0.00,,,1.32,weatherlink.com 1.10,2013-06-01 19:02:00,
2013-06-01 15:17:00,72.4,66.0,29.77,SSW,204,1.0,6.0,81,0.00,,,1.32,weatherlink.com 1.10,2013-06-01 19:17:00,
2013-06-01 15:32:00,72.2,64.0,29.76,WNW,290,2.0,13.0,76,0.00,,,1.32,weatherlink.com 1.10,2013-06-01 19:32:00,
2013-06-01 15:47:00,71.8,65.0,29.76,SW,235,0.0,6.0,80,0.00,,,1.32,weatherlink.com 1.10,2013-06-01 19:47:00,
2013-06-01 16:02:00,73.0,66.0,29.76,WNW,297,4.0,10.0,78,0.00,,,1.32,weatherlink.com 1.10,2013-06-01 20:02:00,
2013-06-01 16:17:00,72.5,66.0,29.76,South,186,5.0,7.0,79,0.00,,,1.32,weatherlink.com 1.10,2013-06-01 20:17:00,
2013-06-01 16:32:00,72.4,65.0,29.76,SSW,202,4.0,9.0,77,0.00,,,1.32,weatherlink.com 1.10,2013-06-01 20:32:00,
2013-06-01 16:47:00,71.9,64.0,29.75,SW,224,0.0,7.0,77,0.00,,,1.32,weatherlink.com 1.10,2013-06-01 20:47:00,
2013-06-01 17:02:00,72.0,65.0,29.75,ESE,123,0.0,3.0,78,0.00,,,1.32,weatherlink.com 1.10,2013-06-01 21:02:00,
2013-06-01 17:17:00,71.6,64.0,29.75,SSW,205,0.0,5.0,78,0.00,,,1.32,weatherlink.com 1.10,2013-06-01 21:17:00,
2013-06-01 17:32:00,71.5,65.0,29.75,SW,225,0.0,5.0,79,0.00,,,1.32,weatherlink.com 1.10,2013-06-01 21:32:00,
2013-06-01 17:47:00,72.4,65.0,29.74,South,184,2.0,8.0,78,0.00,,,1.32,weatherlink.com 1.10,2013-06-01 21:47:00,
2013-06-01 18:02:00,72.1,65.0,29.73,SSW,192,3.0,5.0,78,0.00,,,1.32,weatherlink.com 1.10,2013-06-01 22:02:00,
2013-06-01 18:17:00,72.3,65.0,29.73,SSW,200,0.0,6.0,78,0.00,,,1.32,weatherlink.com 1.10,2013-06-01 22:17:00,
2013-06-01 18:32:00,72.9,66.0,29.72,South,170,2.0,8.0,78,0.00,,,1.32,weatherlink.com 1.10,2013-06-01 22:32:00,
2013-06-01 18:47:00,73.1,66.0,29.72,SSW,210,2.0,7.0,77,0.00,,,1.32,weatherlink.com 1.10,2013-06-01 22:47:00,
2013-06-01 19:02:00,72.1,65.0,29.71,WSW,249,4.0,7.0,79,0.00,,,1.32,weatherlink.com 1.10,2013-06-01 23:02:00,
2013-06-01 19:17:00,71.1,65.0,29.72,West,266,0.0,7.0,80,0.00,,,1.32,weatherlink.com 1.10,2013-06-01 23:17:00,
2013-06-01 19:32:00,70.6,65.0,29.71,SW,224,0.0,2.0,81,0.00,,,1.32,weatherlink.com 1.10,2013-06-01 23:32:00,
2013-06-01 19:47:00,70.3,65.0,29.71,South,184,0.0,3.0,83,0.00,,,1.32,weatherlink.com 1.10,2013-06-01 23:47:00,
2013-06-01 20:02:00,70.1,65.0,29.71,South,184,0.0,1.0,84,0.00,,,1.32,weatherlink.com 1.10,2013-06-02 00:02:00,
2013-06-01 20:17:00,69.9,65.0,29.71,WSW,247,0.0,3.0,85,0.00,,,1.32,weatherlink.com 1.10,2013-06-02 00:17:00,
2013-06-01 20:32:00,69.7,65.0,29.70,WSW,247,0.0,2.0,86,0.00,,,1.32,weatherlink.com 1.10,2013-06-02 00:32:00,
2013-06-01 20:47:00,69.5,66.0,29.70,SE,132,2.0,2.0,87,0.00,,,1.32,weatherlink.com 1.10,2013-06-02 00:47:00,
2013-06-01 21:02:00,69.1,65.0,29.70,WSW,250,0.0,2.0,87,0.00,,,1.32,weatherlink.com 1.10,2013-06-02 01:02:00,
2013-06-01 21:17:00,69.0,65.0,29.70,SSE,163,3.0,4.0,88,0.00,,,1.32,weatherlink.com 1.10,2013-06-02 01:17:00,
2013-06-01 21:32:00,68.9,65.0,29.69,SSE,163,0.0,1.0,88,0.00,,,1.32,weatherlink.com 1.10,2013-06-02 01:32:00,
2013-06-01 21:47:00,68.7,65.0,29.69,SSE,163,0.0,2.0,89,0.00,,,1.32,weatherlink.com 1.10,2013-06-02 01:47:00,
2013-06-01 22:02:00,68.5,66.0,29.68,SSE,154,0.0,4.0,90,0.00,,,1.32,weatherlink.com 1.10,2013-06-02 02:02:00,
2013-06-01 22:17:00,68.2,65.0,29.68,SSE,155,0.0,1.0,90,0.00,,,1.32,weatherlink.com 1.10,2013-06-02 02:17:00,
2013-06-01 22:32:00,67.9,65.0,29.68,SE,139,0.0,3.0,91,0.00,,,1.32,weatherlink.com 1.10,2013-06-02 02:32:00,
2013-06-01 22:47:00,68.1,65.0,29.68,WSW,253,4.0,7.0,91,0.00,,,1.32,weatherlink.com 1.10,2013-06-02 02:47:00,
2013-06-01 23:02:00,68.5,65.0,29.68,South,188,3.0,7.0,89,0.00,,,1.32,weatherlink.com 1.10,2013-06-02 03:02:00,
2013-06-01 23:17:00,68.6,65.0,29.68,South,187,3.0,5.0,88,0.00,,,1.32,weatherlink.com 1.10,2013-06-02 03:17:00,
2013-06-01 23:32:00,68.6,65.0,29.68,West,259,1.0,9.0,87,0.00,,,1.32,weatherlink.com 1.10,2013-06-02 03:32:00,
2013-06-01 23:47:00,68.7,64.0,29.69,WSW,257,7.0,10.0,86,0.00,,,1.32,weatherlink.com 1.10,2013-06-02 03:47:00,